Location: Cambridge (historical)
(38.6883°N, 119.0140°W)
Time: 16:24:53
(UTC+00:00)

Cosmos 2082 Rocket - Pass Details

Date: 29 October 2020
Orbit: 833 x 854 km, 71.0° (Epoch: 23 November)

Event Time Altitude Azimuth Distance (km) Brightness Sun altitude
Exits shadow 12:09:52 49° 197° (SSW) 1,071 2.5 -26.0°
Maximum altitude 12:11:29 87° 113° (ESE) 840 2.1 -25.7°
Drops below altitude 10° 12:17:07 10° 23° (NNE) 2,451 4.9 -24.6°
Sets 12:19:34 0° 24° (NNE) 3,391 5.7 -24.1°
